Deer Park, WA

9:58 AM PDT on May 26, 2017 (GMT -0700)
Deer Park

Weather History for KDEW - January, 2013

Change the Weather History Date:

Wednesday, January 23, 2013

  Actual Average Record
Temperature  
Mean Temperature 22 °F 28 °F  
Max Temperature 32 °F 35 °F 50 °F (2005)
Min Temperature 12 °F 22 °F -9 °F (2008)
Degree Days  
Heating Degree Days 43 37  
Month to date heating degree days 1034 879  
Since 1 July heating degree days 3827 4106  
Cooling Degree Days 0 0  
Month to date cooling degree days 0 0  
Year to date cooling degree days 0 0  
Moisture  
Dew Point 24 °F    
Average Humidity 92    
Maximum Humidity 100    
Minimum Humidity 84    
Precipitation  
Precipitation T in 0.07 in 0.50 in (2004)
Month to date precipitation 1.11 2.11  
Year to date precipitation 1.11 2.11  
Sea Level Pressure  
Sea Level Pressure 30.04 in    
Wind  
Wind Speed 3 mph (SW)    
Max Wind Speed 22 mph    
Max Gust Speed 25 mph    
Visibility 6 miles    
Events Fog , Rain , Snow    
T = Trace of Precipitation, MM = Missing Value Source: NWS Daily Summary

Daily Weather History Graph

Daily Weather History Graph

Search for Another Location

Airport or City:

Trip Planner

Search our weather history database for the weather conditions in past years. The results will help you decide how hot, cold, wet, or windy it might be!

Date:

Astronomy

Jan. 23, 2013 Rise Set
Actual Time 7:27 AM PST 4:36 PM PST
Civil Twilight 6:53 AM PST 5:10 PM PST
Nautical Twilight 6:15 AM PST 5:48 PM PST
Astronomical Twilight 5:38 AM PST 6:25 PM PST
Moon 1:47 PM PST (1/23) 4:46 AM PST (1/23)
Length of Visible Light 10h 17m
Length of Day
9h 09m
Waxing Gibbous, 90% of the Moon is Illuminated
Jan 23
Waxing Gibbous
Jan 26
Full
Feb 3
Last Quarter
Feb 9
New
Feb 17
First Quarter

Hourly Weather History & Observations

Time (PST) Temp. Windchill Dew Point Humidity Pressure Visibility Wind Dir Wind Speed Gust Speed Precip Events Conditions
12:53 AM 15.1 °F - 12.0 °F 88% 30.22 in 9.0 mi Calm Calm - N/A   Clear
1:53 AM 17.1 °F 10.0 °F 15.1 °F 92% 30.23 in 9.0 mi West 4.6 mph - N/A   Clear
2:53 AM 16.0 °F - 14.0 °F 92% 30.22 in 10.0 mi Calm Calm - N/A   Clear
3:53 AM 18.0 °F 11.1 °F 16.0 °F 92% 30.20 in 10.0 mi WSW 4.6 mph - N/A   Clear
4:53 AM 19.0 °F - 16.0 °F 88% 30.18 in 10.0 mi Calm Calm - N/A   Clear
5:53 AM 18.0 °F - 16.0 °F 92% 30.16 in 10.0 mi Calm Calm - N/A   Clear
6:53 AM 15.1 °F - 12.9 °F 91% 30.17 in 10.0 mi Calm Calm - N/A   Clear
7:53 AM 14.0 °F 5.1 °F 12.0 °F 92% 30.16 in 10.0 mi NNW 5.8 mph - N/A   Clear
8:53 AM 18.0 °F - 16.0 °F 92% 30.14 in 10.0 mi Calm Calm - N/A   Clear
9:53 AM 19.9 °F - 18.0 °F 92% 30.14 in 10.0 mi Calm Calm - N/A   Clear
10:53 AM 21.9 °F - 19.9 °F 92% 30.12 in 10.0 mi Calm Calm - N/A   Clear
11:53 AM 26.1 °F - 23.0 °F 88% 30.09 in 10.0 mi Calm Calm - N/A   Clear
12:53 PM 27.0 °F 21.6 °F 24.1 °F 89% 30.07 in 10.0 mi WSW 4.6 mph - N/A   Mostly Cloudy
1:53 PM 28.9 °F - 25.0 °F 85% 30.02 in 10.0 mi Calm Calm - N/A   Overcast
2:53 PM 28.9 °F - 25.0 °F 85% 30.04 in 10.0 mi Calm Calm - N/A   Overcast
3:45 PM 28.4 °F - 24.8 °F 86% 29.96 in 2.5 mi Calm Calm - 0.00 in Snow Light Snow
3:50 PM 28.4 °F - 24.8 °F 86% 29.96 in 0.8 mi Calm Calm - 0.00 in Snow Light Snow
3:53 PM 28.9 °F - 26.1 °F 89% 30.05 in 0.5 mi Calm Calm - 0.00 in Fog , Snow Snow
4:06 PM 28.4 °F 24.6 °F 26.6 °F 93% 29.96 in 0.5 mi ENE 3.5 mph - 0.00 in Fog , Snow Snow
4:32 PM 28.4 °F 23.3 °F 26.6 °F 93% 29.96 in 0.5 mi ESE 4.6 mph - 0.00 in Fog , Snow Snow
4:53 PM 28.0 °F - 27.0 °F 96% 30.04 in 0.8 mi Calm Calm - 0.00 in Snow Light Snow
5:12 PM 28.4 °F 24.6 °F 26.6 °F 93% 29.94 in 1.0 mi ENE 3.5 mph - 0.00 in Snow Light Snow
5:31 PM 28.4 °F - 26.6 °F 93% 29.94 in 2.0 mi Calm Calm - 0.00 in Snow Light Snow
5:46 PM 28.4 °F - 26.6 °F 93% 29.94 in 1.8 mi Calm Calm - 0.00 in Snow Light Snow
5:53 PM 28.9 °F - 28.0 °F 96% 30.03 in 1.8 mi Calm Calm - 0.00 in Snow Light Snow
6:06 PM 28.4 °F - 28.4 °F 100% 29.94 in 1.2 mi Calm Calm - 0.00 in Snow Light Snow
6:32 PM 28.4 °F 24.6 °F 28.4 °F 100% 29.92 in 3.0 mi North 3.5 mph - 0.00 in Snow Light Snow
7:53 PM 28.9 °F - 28.9 °F 100% 29.99 in 4.0 mi Calm Calm - 0.00 in Rain Light Freezing Rain
8:28 PM 30.2 °F 24.3 °F 28.4 °F 93% 29.91 in 5.0 mi West 5.8 mph - 0.00 in   Overcast
8:40 PM 30.2 °F 25.4 °F 28.4 °F 93% 29.91 in 3.0 mi SW 4.6 mph - 0.00 in Snow Light Snow
8:47 PM 30.2 °F 23.4 °F 28.4 °F 93% 29.92 in 2.5 mi West 6.9 mph - 0.00 in Snow Light Snow
8:53 PM 30.0 °F 25.2 °F 28.9 °F 96% 30.01 in 2.5 mi West 4.6 mph - 0.00 in Snow Light Snow
9:09 PM 30.2 °F 26.7 °F 28.4 °F 93% 29.92 in 3.0 mi West 3.5 mph - 0.00 in Snow Light Snow
9:50 PM 32.0 °F 25.6 °F 30.2 °F 93% 29.96 in 10.0 mi SSW 6.9 mph - 0.00 in   Overcast
9:53 PM 32.0 °F 24.2 °F 30.0 °F 92% 30.04 in 10.0 mi SSW 9.2 mph - 0.00 in   Overcast
10:23 PM 30.2 °F 18.5 °F 26.6 °F 86% 29.98 in 9.0 mi South 17.3 mph - N/A   Overcast
10:35 PM 28.4 °F 14.7 °F 26.6 °F 93% 29.99 in 8.0 mi SSW 21.9 mph - N/A   Overcast
10:53 PM 27.0 °F 15.2 °F 25.0 °F 92% 30.08 in 8.0 mi SSW 15.0 mph - N/A   Overcast
11:53 PM 25.0 °F 14.2 °F 21.9 °F 88% 30.13 in 8.0 mi South 11.5 mph - N/A   Overcast